[Iaude] MPEC R109: 2023 RJ3 [a=1.93,e=0.67,i=8.1,H=21.1,PHA]
    mpec at marsden.cfa.harvard.edu 
    mpec at marsden.cfa.harvard.edu
       
    Sun Sep 10 18:12:42 EDT 2023
    
    
  
M.P.E.C. 2023-R109                           Issued 2023 September 10, 22:11 UT
     The Minor Planet Electronic Circulars contain information on unusual
         minor planets, routine data on comets and natural satellites,
         and occasional editorial announcements.  They are published
    on behalf of Division F of the International Astronomical Union by the
          Minor Planet Center, Smithsonian Astrophysical Observatory,
                          Cambridge, MA 02138, U.S.A.
			  
             Prepared using the Tamkin Foundation Computer Network
                              MPC at CFA.HARVARD.EDU
            URL https://www.minorplanetcenter.net/    ISSN 1523-6714
                                    2023 RJ3                                    
Observations:
     K23R03J  C2023 08 20.60770305 22 02.443+16 33 50.16         21.36GVER109F52
     K23R03J  C2023 08 20.61286205 21 58.716+16 34 00.72         21.24GVER109F52
     K23R03J  C2023 08 20.62334205 21 51.134+16 34 22.91         21.58GVER109F52
     K23R03J* C2023 09 08.46260102 03 18.885+19 21 15.33         19.71wXER109F51
     K23R03J  C2023 09 08.47505802 03 12.827+19 21 06.82         19.86wXER109F51
     K23R03J  C2023 09 08.48759402 03 06.733+19 20 58.22         19.80wXER109F51
     K23R03J  C2023 09 08.60440502 02 09.944+19 19 33.70         19.58GVER109F51
     K23R03J  C2023 09 08.60522002 02 09.553+19 19 33.11         19.56GVER109F51
     K23R03J  C2023 09 08.60603602 02 09.163+19 19 32.47         19.54GVER109F51
     K23R03J KB2023 09 08.93148 01 59 39.73 +19 15 11.9          19.7 RZER109106
     K23R03J KC2023 09 08.93651101 59 37.47 +19 15 09.0          19.9 GVER109M60
     K23R03J KB2023 09 08.93710 01 59 37.07 +19 15 07.9          19.7 RZER109106
     K23R03J KC2023 09 08.94210901 59 34.82 +19 15 05.1          19.5 GVER109M60
     K23R03J KB2023 09 08.94239 01 59 34.59 +19 15 04.4          19.2 RZER109106
     K23R03J KC2023 09 08.94762701 59 32.22 +19 15 00.9          19.7 GVER109M60
     K23R03J KB2023 09 08.94768 01 59 32.12 +19 15 00.5          19.0 RZER109106
     K23R03J KC2023 09 08.95342901 59 29.50 +19 14 56.9          19.9 GVER109M60
     K23R03J KC2023 09 08.98737 01 59 13.55 +19 14 31.9          19.4 GVER109104
     K23R03J KC2023 09 09.01332601 59 01.14 +19 14 13.2          19.8 GXER109595
     K23R03J KC2023 09 09.01361 01 59 01.19 +19 14 13.7          19.5 GVER109104
     K23R03J KC2023 09 09.01593901 58 59.93 +19 14 11.3          19.6 GVER109L01
     K23R03J KC2023 09 09.01761901 58 59.11 +19 14 10.1          19.4 GVER109L01
     K23R03J KC2023 09 09.01930101 58 58.31 +19 14 09.1          19.3 GVER109L01
     K23R03J KC2023 09 09.02098301 58 57.52 +19 14 08.3          19.5 GVER109L01
     K23R03J KC2023 09 09.02266501 58 56.76 +19 14 06.4          19.7 GVER109L01
     K23R03J KC2023 09 09.02632901 58 55.01 +19 14 03.3          19.6 GXER109595
     K23R03J KB2023 09 09.02727401 58 55.04 +19 14 02.2                VER109I93
     K23R03J KB2023 09 09.03004501 58 53.70 +19 14 00.2          20.1 GVER109I93
     K23R03J KB2023 09 09.03262701 58 52.48 +19 13 58.4          20.0 GVER109I93
     K23R03J KC2023 09 09.03878401 58 49.36 +19 13 54.4          18.5 GXER109C95
     K23R03J KC2023 09 09.03904601 58 49.06 +19 13 54.0          19.6 GXER109595
     K23R03J KC2023 09 09.05305901 58 42.65 +19 13 44.1          18.8 GXER109C95
     K23R03J KC2023 09 09.06703301 58 36.09 +19 13 33.6          19.3 GXER109C95
     K23R03J KB2023 09 09.07118 01 58 33.99 +19 13 25.3          19.3 GVER109L65
     K23R03J KB2023 09 09.09132 01 58 24.50 +19 13 10.1          19.5 GVER109L65
     K23R03J KC2023 09 09.09192301 58 24.506+19 13 10.56         19.4 GVER109J95
     K23R03J KC2023 09 09.09506001 58 23.050+19 13 08.04         19.5 GVER109J95
     K23R03J KC2023 09 09.09821501 58 21.550+19 13 05.77         19.6 GVER109J95
     K23R03J KC2023 09 09.10162301 58 19.939+19 13 03.54         19.1 GVER109J95
     K23R03J KB2023 09 09.11147 01 58 15.07 +19 12 54.3          18.8 GVER109L65
     K23R03J 1C2023 09 09.14364 01 57 59.84 +19 12 30.7          19.8 VXER109033
     K23R03J 1C2023 09 09.14399 01 57 59.69 +19 12 30.1          19.8 VXER109033
     K23R03J 1C2023 09 09.14433 01 57 59.52 +19 12 30.1          19.9 VXER109033
     K23R03J 1C2023 09 09.14472 01 57 59.35 +19 12 29.7          19.9 VXER109033
     K23R03J KC2023 09 09.85408001 52 41.407+19 03 10.98         18.9 GVER109L02
     K23R03J KC2023 09 09.86012701 52 38.770+19 03 04.97         19.2 GVER109L02
     K23R03J KC2023 09 09.86376 01 52 36.66 +19 02 58.4          19.6 GXER109G02
     K23R03J KC2023 09 09.87107 01 52 33.43 +19 02 52.7          19.7 GXER109G02
     K23R03J KC2023 09 09.87910 01 52 29.81 +19 02 46.8          19.5 GXER109G02
     K23R03J 1C2023 09 09.88767 01 52 25.77 +19 02 44.9          19.8 GVER109C40
     K23R03J 1C2023 09 09.89918 01 52 20.57 +19 02 35.3          19.8 GVER109C40
     K23R03J KC2023 09 09.90328701 52 19.162+19 02 33.83         19.3 GVER109L02
     K23R03J 1C2023 09 09.91058 01 52 15.32 +19 02 26.6          20.2 GVER109C40
     K23R03J KC2023 09 09.91873301 52 12.166+19 02 22.45         18.8 GVER109L02
     K23R03J KB2023 09 09.93944901 52 02.856+19 01 57.36         19.2 GXER109B72
     K23R03J KB2023 09 09.95169401 51 57.329+19 01 48.08         19.4 GXER109B72
     K23R03J KB2023 09 09.96393401 51 51.820+19 01 38.54         19.1 GXER109B72
     K23R03J KB2023 09 09.97600901 51 46.70 +19 01 33.0          19.2 GXER109958
     K23R03J KB2023 09 09.98021701 51 44.80 +19 01 29.3          19.5 GXER109958
     K23R03J KB2023 09 09.98437201 51 43.01 +19 01 24.8          18.9 GXER109958
     K23R03J KC2023 09 10.08233 01 50 58.38 +19 00 06.3          19.9 GVER109204
     K23R03J KC2023 09 10.08966 01 50 55.06 +19 00 00.3                VER109204
     K23R03J KC2023 09 10.09710 01 50 51.70 +18 59 54.2                VER109204
     K23R03J 1C2023 09 10.11726 01 50 42.55 +18 59 34.2          20.3 VXER109033
     K23R03J 1C2023 09 10.11755 01 50 42.42 +18 59 34.2          20.4 VXER109033
     K23R03J 1C2023 09 10.11783 01 50 42.30 +18 59 34.0          20.3 VXER109033
     K23R03J KC2023 09 10.33140901 49 09.43 +18 56 43.1          20.0 VuER109H21
     K23R03J KC2023 09 10.33420701 49 08.17 +18 56 40.8          19.9 VuER109H21
     K23R03J KC2023 09 10.33700701 49 06.91 +18 56 38.4          19.9 VuER109H21
     K23R03J KC2023 09 10.33719401 49 06.83 +18 56 38.2          19.9 VuER109H21
     K23R03J 1C2023 09 10.88669801 45 11.650+18 48 40.60               VER109246
     K23R03J 1C2023 09 10.88698201 45 11.500+18 48 40.60               VER109246
     K23R03J 1C2023 09 10.88755001 45 11.260+18 48 38.90         19.7 GVER109246
Observer details:
033 Karl Schwarzschild Observatory, Tautenburg.  Observers S. Melnikov, C.
    Hoegner, F. Ludwig, M. Hartmann, B. Stecklum.  Measurer B. Stecklum.
    1.34-m f/3 Schmidt + CCD.
104 San Marcello Pistoiese.  Observers P. Bacci, M. Maestripieri.  Measurer P.
    Bacci.  0.60-m f/4.0 reflector + CCD.
106 Crni Vrh.  Observer H. Mikuz.  0.60-m f/3.3 reflector + CMO.
204 Schiaparelli Observatory.  Observers L. Buzzi, G. Galli.  0.84-m f/3.5
    reflector + CCD.
246 Klet Observatory-KLENOT.  Observers M. Tichy, J. Ticha, M. Janda, M.
    Honkova.  Measurer M. Tichy.  1.06-m f/2.7 Reflector + 2048x2048 CCD.
595 Farra d'Isonzo.  Observer E. Pettarin.  0.61-m f/4.5 reflector + CCD.
958 Observatoire de Dax.  Observer P. Dupouy.  0.50-m f/4.5 Reflector + CMO.
B72 Soerth.  Observer B. Koch.  0.36-m f/7.6 reflector + CMO.
C40 Kuban State University Astrophysical Observatory.  Observers A. Ivanov, A.
    Barcov, V. Ivanov, V. Lysenko, N. Yakovenko, N. Ivanova, N. Gorbunov, G.
    Kurbatov, P. Shchukin, V. Roshchupko.  Measurer A. Ivanov.  0.51-m f/8
    reflector + CCD.
C95 SATINO Remote Observatory, Haute Provence.  Observer J. Jahn.  0.60-m
    f/3.2 Newtonian reflector + CCD.
F51 Pan-STARRS 1, Haleakala.  Observers J. Bulger, T. Lowe, P. Minguez, A.
    Schultz, I. Smith, K. Chambers.  Measurers K. Chambers, T. de Boer, J.
    Bulger, J. Fairlamb, H. Gao, M. Huber, C.-C. Lin, T. Lowe, E. Magnier, P.
    Minguez, Y. Ramanjooloo, A. Schultz, I. Smith, R. Wainscoat, R. Weryk, S.
    Chastel.  1.8-m Ritchey-Chretien + CCD.
F52 Pan-STARRS 2, Haleakala.  Observers J. Bulger, K. Chambers, T. Dukes, T.
    Lowe, P. Minguez, A. Schultz, I. Smith.  Measurers S. Chastel, J.
    Fairlamb, M. Huber, Y. Ramanjooloo, R. Wainscoat, R. Weryk.  1.8-m
    Ritchey-Chretien + CCD.
G02 KYSUCE Observatory, Kysucke Nove Mesto.  Observer M. Urbanik.  0.40-m
    f/6.8 Corrected Dall-Kirkham + CCD.
H21 Astronomical Research Observatory, Westfield.  Observer R. Holmes.
    Measurers T. Linder, R. Holmes, L. Horn.  0.76-m f/3.0 astrograph + CCD.
I93 St Pardon de Conques.  Observer F. Losse.  0.40-m f/3.7 reflector + CMO.
J95 Great Shefford.  Observer P. Birtwhistle.  0.41-m f/6.3 Schmidt-Cassegrain
    + CCD.
L01 Visnjan Observatory, Tican.  Observer K. Korlevic.  1.0-m f/2.9 reflector
    + CCD.
L02 NOAK Observatory, Stavraki.  Observer N. Sioulas.  0.25-m f/4.7 reflector
    + CCD.
L65 Bredenkamp Observatory, Bremen.  Observer H. Duin.  0.23-m f/6.3 reflector
    + CMO.
M60 Virgil Observatory, Loiano.  Observer A. Carbognani.  0.30-m f/4.0
    Reflector + CCD.
Orbital elements:
2023 RJ3                                            PHA, Earth MOID = 0.0082 AU
Epoch 2023 Sept. 13.0 TT = JDT 2460200.5                Veres                   
M  24.49952              (2000.0)            P               Q                  
n   0.36859793     Peri.  271.94489     -0.22361559     +0.97399246             
a   1.9264931      Node   344.98151     -0.82880530     -0.20974044             
e   0.6664168      Incl.    8.10503     -0.51291115     -0.08571838             
mailing list